This is the latest recevied weather packets stored in our database for station/object N3DXC. If no packets are shown the sender has not sent any weather packets the latest 10 day(s).
| Time | Temp. | Humidity | Pressure | Rain* | Wind** | Luminosity | Snow |
|---|---|---|---|---|---|---|---|
| 1778155185 | 5° C | 92% | 1013.3 hPa | 0 mm | - | - | - |
| 1778154886 | 4.44° C | 92% | 1013.4 hPa | 0 mm | - | - | - |
| 1778154585 | 3.89° C | 93% | 1013.4 hPa | 0 mm | - | - | - |
| 1778154286 | 3.89° C | 94% | 1013.4 hPa | 0 mm | - | - | - |
| 1778153985 | 3.89° C | 94% | 1013.3 hPa | 0 mm | - | - | - |
| 1778153685 | 3.33° C | 94% | 1013.1 hPa | 0 mm | - | - | - |
| 1778153385 | 2.78° C | 94% | 1013.1 hPa | 0 mm | - | - | - |
| 1778153085 | 2.78° C | 94% | 1013 hPa | 0 mm | - | - | - |
| 1778152785 | 2.22° C | 94% | 1013 hPa | 0 mm | - | - | - |
| 1778152485 | 2.22° C | 94% | 1012.9 hPa | 0 mm | - | - | - |
| 1778152185 | 2.22° C | 94% | 1012.8 hPa | 0 mm | - | - | - |
| 1778151885 | 1.67° C | 94% | 1012.8 hPa | 0 mm | - | - | - |
| 1778151585 | 1.67° C | 95% | 1012.8 hPa | 0 mm | - | - | - |
| 1778151285 | 1.67° C | 95% | 1012.8 hPa | 0 mm | - | - | - |
| 1778150985 | 1.67° C | 95% | 1012.7 hPa | 0 mm | - | - | - |
| 1778150685 | 1.67° C | 95% | 1012.8 hPa | 0 mm | - | - | - |
| 1778150387 | 1.67° C | 95% | 1012.8 hPa | 0 mm | - | - | - |
| 1778150085 | 1.11° C | 95% | 1012.7 hPa | 0 mm | - | - | - |
| 1778149785 | 1.11° C | 95% | 1012.7 hPa | 0 mm | - | - | - |
| 1778149485 | 1.11° C | 95% | 1012.7 hPa | 0 mm | - | - | - |
| 1778149185 | 1.11° C | 95% | 1012.7 hPa | 0 mm | - | - | - |
| 1778148885 | 1.67° C | 93% | 1012.7 hPa | 0 mm | - | - | - |
| 1778148585 | 1.67° C | 93% | 1012.7 hPa | 0 mm | - | - | - |
| 1778148285 | 1.67° C | 93% | 1012.7 hPa | 0 mm | - | - | - |
| 1778147985 | 1.67° C | 92% | 1012.8 hPa | 0 mm | - | - | - |
* Rain latest hour (hover to see other rain measurements)
** Current wind speed in m/s (hover to see current wind gust speed)